{"data":{"norad_id":56068,"epoch":"2026-09-20T04:03:14.745888Z","epoch_age_seconds":46839,"freshness":"FRESH","line1":"1 56068U 23043Y   26263.16892067  .00000031  00000+0  42617-4 0  9992","line2":"2 56068  87.9289 225.0701 0002106  72.7311 287.4053 13.21824500170796","mean_motion":13.218245,"eccentricity":0.0002106,"inclination_deg":87.9289,"raan_deg":225.0701,"arg_perigee_deg":72.7311,"mean_anomaly_deg":287.4053,"bstar":4.2617e-5,"rev_number":17079,"period_min":108.94033209401,"perigee_km":1176.1678129097,"apogee_km":1179.3503563406,"semimajor_km":7555.8960846252,"source":"CELESTRAK","updated_at":"2026-09-20T09:00:44.791173Z"}}